Regional Weather Roundup
Issued by NWS

Home | Current Version | Previous Version | Text Only | Print | Product List | Glossary On
Versions: 1 2 3 4 5 6 7 8 9 10 11 12 13 14 15 16 17 18 19 20 21 22 23 24 25 26 27 28 29 30 31 32 33 34 35 36 37 38 39 40 41 42 43 44 45 46 47 48 49 50
000
ASUS43 KLSX 301307
RWRMO

WEATHER SUMMARY FOR MISSOURI
NATIONAL WEATHER SERVICE SPRINGFIELD MO
800 AM CDT MON MAY 30 2016

NOTE: "FAIR" INDICATES FEW OR NO CLOUDS BELOW 12,000 FEET WITH NO
       SIGNIFICANT WEATHER AND/OR OBSTRUCTIONS TO VISIBILITY.
       CURRENT SKY AND/OR WEATHER CONDITIONS ARE NOT AVAILABLE FOR
       CHILLICOTHE AND FARMINGTON.

MOZ001>031-035>038-043-044-053-054-301400-
...NORTHERN AND WESTERN MISSOURI...

CITY           SKY/WX    TMP DP  RH WIND       PRES   REMARKS
KANSAS CTY INT PTSUNNY   71  65  81 SE5       30.06R
KANSAS C DTWN  MOSUNNY   71  64  78 E3        30.05S
LEE`S SUMMIT   MOSUNNY   71  65  81 S3        30.07R
ST JOSEPH      SUNNY     70  64  81 CALM      30.04S
CHILLICOTHE      N/A     71  66  84 CALM      30.07S
KIRKSVILLE     MOSUNNY   72  64  76 W6        30.08R

$$
MOZ066>068-077>081-088>096-101>105-301400-
...SOUTHWEST MISSOURI...

CITY           SKY/WX    TMP DP  RH WIND       PRES   REMARKS
SPRINGFIELD    CLOUDY    71  64  78 SE7       30.08S
JOPLIN         CLOUDY    70  65  84 S6        30.06S
BRANSON        CLOUDY    68  64  88 CALM      30.10S

$$
MOZ032>034-039>042-045>050-055>058-069>072-301400-
...CENTRAL MISSOURI...

CITY           SKY/WX    TMP DP  RH WIND       PRES   REMARKS
COLUMBIA       SUNNY     70  66  87 S5        30.10R
JEFFERSON CITY SUNNY     68  64  87 E3        30.09R
ROLLA          SUNNY     71  65  81 SW6       30.10R
SEDALIA        SUNNY     72  66  81 S5        30.09R
WHITEMAN AFB   SUNNY     70  70 100 SW6       30.07R
WARRENSBURG    MOSUNNY   68  64  88 S3        30.08R

$$
MOZ051-052-059>065-301400-
...EAST CENTRAL MISSOURI...

CITY           SKY/WX    TMP DP  RH WIND       PRES   REMARKS
ST LOUIS INTL  MOSUNNY   76  63  64 W6        30.09R
SPIRIT OF STL  SUNNY     71  66  84 CALM      30.08R
ST CHARLES     SUNNY     71  66  84 CALM      30.08R

$$
MOZ072>076-082>087-097>100-106>115-301400-
...SOUTH CENTRAL AND SOUTHEAST MISSOURI...

CITY           SKY/WX    TMP DP  RH WIND       PRES   REMARKS
CAPE GIRARDEAU SUNNY     70  66  87 CALM      30.08R
FARMINGTON     SUNNY     68  63  84 CALM      30.12R
POPLAR BLUFF   SUNNY     71  65  81 CALM      30.08S
WEST PLAINS    SUNNY     70  63  78 CALM      30.12R

$$



USA.gov is the U.S. government's official web portal to all federal, state and local government web resources and services.